This is the latest recevied weather packets stored in our database for station/object KD7AWQ. If no packets are shown the sender has not sent any weather packets the latest 10 day(s).
| Time | Temp. | Humidity | Pressure | Rain* | Wind** | Luminosity | Snow |
|---|---|---|---|---|---|---|---|
| 1778086445 | 16.67° C | 34% | 1186.1 hPa | 0 mm | - | 869 W/m² | - |
| 1778086141 | 16.67° C | 35% | 1186.1 hPa | 0 mm | - | 854 W/m² | - |
| 1778085837 | 16.67° C | 35% | 1186.2 hPa | 0 mm | - | 838 W/m² | - |
| 1778085536 | 17.22° C | 33% | 1186 hPa | 0 mm | - | 823 W/m² | - |
| 1778085230 | 17.78° C | 33% | 1186 hPa | 0 mm | - | 806 W/m² | - |
| 1778084925 | 16.11° C | 34% | 1185.7 hPa | 0 mm | - | 791 W/m² | - |
| 1778084624 | 16.11° C | 37% | 1185.6 hPa | 0 mm | - | 774 W/m² | - |
| 1778084321 | 16.11° C | 36% | 1185.8 hPa | 0 mm | - | 753 W/m² | - |
| 1778084018 | 16.11° C | 36% | 1185.7 hPa | 0 mm | - | 736 W/m² | - |
| 1778083716 | 16.11° C | 35% | 1185.8 hPa | 0 mm | - | 716 W/m² | - |
| 1778083412 | 16.11° C | 35% | 1185.6 hPa | 0 mm | - | 698 W/m² | - |
| 1778083111 | 16.11° C | 35% | 1185.6 hPa | 0 mm | - | 680 W/m² | - |
| 1778082807 | 16.11° C | 34% | 1185.4 hPa | 0 mm | - | 660 W/m² | - |
| 1778081685 | 16.11° C | 34% | 1185.5 hPa | 0 mm | - | 587 W/m² | - |
| 1778081383 | 15.56° C | 36% | 1185.6 hPa | 0 mm | - | 567 W/m² | - |
| 1778081079 | 15.56° C | 37% | 1185.7 hPa | 0 mm | - | 541 W/m² | - |
| 1778080778 | 15.56° C | 37% | 1185.6 hPa | 0 mm | - | 521 W/m² | - |
| 1778080475 | 15.56° C | 37% | 1185.7 hPa | 0 mm | - | 499 W/m² | - |
| 1778080172 | 15.56° C | 36% | 1185.6 hPa | 0 mm | - | 477 W/m² | - |
| 1778079868 | 15° C | 37% | 1185.7 hPa | 0 mm | - | 454 W/m² | - |
| 1778079565 | 14.44° C | 38% | 1185.4 hPa | 0 mm | - | 431 W/m² | - |
| 1778079262 | 14.44° C | 38% | 1185.3 hPa | 0 mm | - | 201 W/m² | - |
| 1778078959 | 14.44° C | 39% | 1185.4 hPa | 0 mm | - | 60 W/m² | - |
| 1778078655 | 14.44° C | 40% | 1185.3 hPa | 0 mm | - | 366 W/m² | - |
| 1778078354 | 14.44° C | 39% | 1185.3 hPa | 0 mm | - | 360 W/m² | - |
* Rain latest hour (hover to see other rain measurements)
** Current wind speed in m/s (hover to see current wind gust speed)